TimeEDT,TemperatureF,Dew PointF,Humidity,Sea Level PressureIn,VisibilityMPH,Wind Direction,Wind SpeedMPH,Gust SpeedMPH,PrecipitationIn,Events,Conditions,WindDirDegrees,DateUTC
12:53 AM,51.1,46.9,86,30.16,10.0,NW,5.8,-,N/A,,Overcast,320,2013-09-27 04:53:00
1:53 AM,51.1,48.0,89,30.16,10.0,NW,5.8,-,N/A,,Overcast,310,2013-09-27 05:53:00
2:53 AM,50.0,46.9,89,30.16,10.0,NNW,5.8,-,N/A,,Overcast,340,2013-09-27 06:53:00
3:53 AM,46.9,46.0,97,30.17,10.0,NNW,6.9,-,N/A,,Clear,340,2013-09-27 07:53:00
4:53 AM,46.9,45.0,93,30.19,10.0,NNW,9.2,-,N/A,,Clear,340,2013-09-27 08:53:00
5:53 AM,46.9,45.0,93,30.20,10.0,NNW,8.1,-,N/A,,Clear,330,2013-09-27 09:53:00
6:53 AM,45.0,44.1,97,30.22,9.0,NNW,8.1,-,N/A,,Clear,330,2013-09-27 10:53:00
7:53 AM,50.0,46.9,89,30.22,10.0,NW,6.9,-,N/A,,Clear,320,2013-09-27 11:53:00
8:53 AM,55.0,48.0,77,30.22,10.0,NW,8.1,-,N/A,,Clear,320,2013-09-27 12:53:00
9:53 AM,59.0,48.9,69,30.23,10.0,North,10.4,16.1,N/A,,Clear,350,2013-09-27 13:53:00
10:53 AM,63.0,48.0,58,30.22,10.0,NNW,12.7,-,N/A,,Clear,330,2013-09-27 14:53:00
11:53 AM,64.9,48.9,56,30.21,10.0,NNW,11.5,-,N/A,,Clear,330,2013-09-27 15:53:00
12:53 PM,66.9,46.9,49,30.19,10.0,NNW,15.0,21.9,N/A,,Scattered Clouds,340,2013-09-27 16:53:00
1:53 PM,66.0,46.0,48,30.19,10.0,NNW,13.8,21.9,N/A,,Scattered Clouds,340,2013-09-27 17:53:00
2:53 PM,66.9,45.0,45,30.19,10.0,NNW,13.8,20.7,N/A,,Scattered Clouds,330,2013-09-27 18:53:00
3:53 PM,66.9,45.0,45,30.19,10.0,NNW,16.1,19.6,N/A,,Clear,340,2013-09-27 19:53:00
4:53 PM,64.9,44.1,47,30.19,10.0,NNW,9.2,-,N/A,,Clear,340,2013-09-27 20:53:00
5:53 PM,62.1,46.0,56,30.20,10.0,NNW,8.1,-,N/A,,Clear,340,2013-09-27 21:53:00
6:53 PM,57.0,46.0,67,30.22,10.0,NNW,6.9,-,N/A,,Clear,340,2013-09-27 22:53:00
7:53 PM,55.0,46.0,72,30.23,10.0,North,5.8,-,N/A,,Clear,360,2013-09-27 23:53:00
8:53 PM,55.0,46.0,72,30.24,10.0,NNW,4.6,-,N/A,,Clear,340,2013-09-28 00:53:00
9:53 PM,54.0,46.0,75,30.24,10.0,North,3.5,-,N/A,,Clear,360,2013-09-28 01:53:00
10:53 PM,52.0,46.0,80,30.25,10.0,NNW,4.6,-,N/A,,Clear,340,2013-09-28 02:53:00
11:53 PM,48.0,46.0,93,30.25,10.0,WNW,3.5,-,N/A,,Clear,300,2013-09-28 03:53:00